Regional Weather Roundup
Issued by NWS

Home | Current Version | Previous Version | Text Only | Print | Product List | Glossary On
Versions: 1 2 3 4 5 6 7 8 9 10 11 12 13 14 15 16 17 18 19 20 21 22 23 24 25 26 27 28 29 30 31 32 33 34 35 36 37 38 39 40 41 42 43 44 45 46 47 48 49 50
000
ASHW40 PHFO 270612
RWRHI

WEATHER ROUNDUP FOR HAWAII
NATIONAL WEATHER SERVICE HONOLULU HI
800 PM HST FRI AUG 26 2016

THIS IS AN AUTOMATED REPORT THAT HAS NOT BEEN QUALITY CONTROLLED.

NOTE..."FAIR" INDICATES FEW OR NO CLOUDS BELOW 12,000 FEET WITH NO
SIGNIFICANT WEATHER AND/OR OBSTRUCTIONS TO VISIBILITY.

* - THESE SITES REPORT LIMITED FIELDS

HIZ001>004-270700-
KAUAI-NIIHAU-

CITY           SKY/WX    TMP DP  RH WIND       PRES   REMARKS
LIHUE APT      PTCLDY    79  67  66 NE15      30.04R
PORT ALLEN*      N/A     79 N/A N/A NE13G18     N/A
POIPU*           N/A     79 N/A N/A NE9G17      N/A
PRINCEVILLE*     N/A     77 N/A N/A E6          N/A
KOKOLE POINT*  NOT AVBL
MOLOAA DAIRY*    N/A     75  66  73 E3          N/A
WAIMEA HTS*    NOT AVBL
PUU OPAE*      NOT AVBL
PUU LUA*       NOT AVBL
MAKAHA RIDGE*  NOT AVBL
$$

HIZ005>011-270700-
OAHU-

CITY           SKY/WX    TMP DP  RH WIND       PRES   REMARKS
HONOLULU       PTCLDY    79  65  62 E9        30.00R
KALAELOA       CLEAR     78  66  66 NE6       30.01R
KANEOHE MCB    CLEAR     79  68  69 NE8       29.99R
WHEELER FIELD  FAIR      74  68  81 NE8       30.03R
BELLOWS*       NOT AVBL
KAHUKU*        NOT AVBL
WHEELER*       NOT AVBL
WAIANAE HARBOR NOT AVBL
DILLINGHAM*      N/A     90  79  70 MISG        N/A  HX 105
KAHUKU TRN*      N/A     82  75  78 W7G16       N/A
KAWAILOA*        N/A     72  64  78 E13G20      N/A
KII*             N/A     79  70  73 NE14        N/A
MAKUA RANGE*     N/A     79  68  69 NW10G16     N/A
OAHU FOREST NW NOT AVBL
SCHOFIELD BRK*   N/A     72  66  83 MISG        N/A
SCHOFIELD S*   NOT AVBL
WAIANAE VLY*   NOT AVBL
KUAOKALA*      NOT AVBL
HONOULIUULI*   NOT AVBL
MOKUOLOE IS*   NOT AVBL
PALEHUA*       NOT AVBL
WAIAWA PHB*    NOT AVBL
$$

HIZ012>013-270700-
MOLOKAI-

CITY           SKY/WX    TMP DP  RH WIND       PRES   REMARKS
MOLOKAI AIRPT  CLEAR     78  68  71 NE14      30.01R
KALAUPAPA      NOT AVBL
MAKAPULAPAI*   NOT AVBL
MOLOKAI 1*     NOT AVBL
PUU ALII*      NOT AVBL
$$

HIZ016-270700-
KAHOOLAWE-

CITY           SKY/WX    TMP DP  RH WIND       PRES   REMARKS
KAHOOLAWE*     NOT AVBL
HAKIOAWA*      NOT AVBL
HONOKANAIA*      N/A     79  64  59 N15G23      N/A
KANELOA*         N/A     73  68  83 E9G21     30.05R
KEALIALALO*    NOT AVBL
LUA MAKIKA*    NOT AVBL
$$

HIZ014>015-270700-
LANAI-

CITY           SKY/WX    TMP DP  RH WIND       PRES   REMARKS
LANAI CITY     FAIR      72  65  78 NE15G28   30.05R
LANAI 1*       NOT AVBL
$$

HIZ017>028-270700-
MAUI-

CITY           SKY/WX    TMP DP  RH WIND       PRES   REMARKS
KAHULUI        PTCLDY    78  65  63 E8        30.01R
KAPALUA-W MAUI NOT AVBL
HANA AIRPORT     N/A     73  72  94 S2        30.05R
HANA*            N/A     73 N/A N/A S2          N/A
HALEAKALA SUMM   N/A     50  18  27 NE13        N/A
MAALAEA BAY*   NOT AVBL
HALEAKALA*     NOT AVBL
KAUPO GAP*     NOT AVBL
KULA 1*          N/A     53  52  95 E3          N/A
$$

HIZ023>026-270700-
BIG ISLAND OF HAWAII COAST AND LOWER SLOPES-

CITY           SKY/WX    TMP DP  RH WIND       PRES   REMARKS
KAILUA KONA    PTCLDY    83  73  72 SW9       29.95R
HILO           MOCLDY    77  68  73 CALM      30.01R
HONOKAA*         N/A     70 N/A N/A VRB1        N/A
KAWAIHAE MWT*    N/A     84 N/A N/A W6          N/A
KAWAIHAE*      NOT AVBL
SOUTH POINT*     N/A     73 N/A N/A N13G18      N/A
UPOLU AIRPORT* NOT AVBL
KAMUELA*       MOCLDY    64  63  94 NE13      30.11R
HAKALAU*         N/A     53  51  93 CALM        N/A
KALOKO-HONOKO* NOT AVBL
PALI 2*          N/A     66  59  77 S15G29      N/A
KEALAKOMO*       N/A     79  64  61 N16G23      N/A
KAUPULEHU*     NOT AVBL
KAPAPALA*        N/A     70  64  80 SW6G12      N/A
LOWER KAHUKU*  NOT AVBL
PUHE CS*       NOT AVBL
PUHO CS*       NOT AVBL
PTA KEAMUKU*     N/A     61  55  82 CALM        N/A
WAIKOLOA*      NOT AVBL
$$

HIZ027>028-270700-
BIG ISLAND OF HAWAII INTERIOR AND SUMMMITS-

CITY           SKY/WX    TMP DP  RH WIND       PRES   REMARKS
BRADSHAW FIELD MOCLDY    57  55  94 W2        30.33R
MK VISITOR CEN   N/A     46  39  76 N3          N/A
MAUNA KEA*       N/A     39   1  20 SE10        N/A
MAUNA LOA*       N/A     46  36  66 MISG        N/A
MAUNA LOA 1*   NOT AVBL
PTA KIPUKA*      N/A     70  66  88 E2          N/A
PTA RANGE 17*    N/A     57  52  82 S3          N/A
PTA WEST*        N/A     61  55  82 S8          N/A
NENE CABIN*    NOT AVBL
AHUMOA*        NOT AVBL
PTA PORTABLE*  NOT AVBL
PUU MALI*        N/A     54  54 100 NE8G18      N/A
$$

HIC003-270700-
NORTHWEST ISLANDS-

CITY           SKY/WX    TMP DP  RH WIND       PRES   REMARKS
MIDWAY ISLAND  CLOUDY    77  70  78 E13       30.08R
MIDWAY NOS*    NOT AVBL
FRENCH FRIGATE NOT AVBL
$$

PHZ110>124-180-270700-
BUOY REPORTS

STATION/POSITION TIME  TEMP    WIND        PRES    WAVE   SWELL
                       AIR SEA DIR/SP/G            HT/PER HT/DIR
                 (UTC) (F)     (DEG/KT/KT) (MB)    (FT/S) (FT/D)
BUOY 51001       NOT AVBL
BUOY 51101       0550   80 81   60/ 14/ 16 1017.7R   4/ 6   3/120
BUOY 51100       NOT AVBL
BUOY 51002       NOT AVBL
BUOY 51003       0550   82 83   60/ 12/ 14 1014.8R   5/13   5/140
BUOY 51004       0550   81 82   50/ 14/ 16 1013.7R   6/ 7   5/ 80
BARBERS PT BUOY  NOT AVBL
WAIMEA BAY BUOY  0504      81                N/A     4/ 6
KAILUA BAY BUOY  0511      82                N/A     5/ 7   2/130
LANAI BUOY       0515      82                N/A     3/14   2/200
BARBERS PT 2     NOT AVBL
PAUWELA MAUI     0509      80                N/A     4/ 7
HILO             0512      82                N/A     5/ 8   2/140
KANEOHE BAY BUOY 0506      80                N/A     5/ 6
HANALEI KAUAI    NOT AVBL
KAHULUI HARBOR   0500   79 83   40/  7/  9 1015.4R
HONOLULU HARBOR  0500   79 82   60/  6/ 11 1015.9R
KILO NALU        NOT AVBL
HILO HARBOR      0500   78 82   40/  8/ 11 1014.8R
MOKUOLOE         0500   79 83   80/ 11/ 13 1015.9R
NAWILIWILI       0500   79 81   40/  9/ 16 1016.3R
WHOTS BUOY       NOT AVBL
BUOY 51028       NOT AVBL
$$

......................KEY........................................
  SKY/WX - SKY CONDITIONS/PRESENT WEATHER
  TMP    - TEMPERATURE IN FAHRENHEIT
  DWPT   - DEWPOINT IN FAHRENHEIT
  RH     - RELATIVE HUMIDITY IN PERCENT
  WIND   - DIRECTION AND SPEED /MPH FOR ISLANDS...KTS FOR BUOYS/
  PRES   - MEAN SEA LEVEL PRESSURE IN INCHES OF HG
  VSB    - VISIBILITY IN MILES
  HX     - HEAT INDEX
  WCI    - WIND CHILL INDEX
  VRB    - VARIABLE WIND DIRECTION
  N/A    - NOT AVAILABLE




USA.gov is the U.S. government's official web portal to all federal, state and local government web resources and services.